When you browse on this site, cookies collect data to enhance your experience and personalize the content and advertising you see.
Visit our Privacy Policy to learn more. By continuing to use the site, you agree to this use of cookies and data.
  • In Hungary
  • List of Countries
  • For 7 days
  • Water Temperature
  • Satellite Maps
  • Weather Map
  • News
  • Weather Widgets
  • user-avatar
    Login

    Hourly Weather Potik

    Today, 16 July, Tuesday

    Time Temperature Precipitation Wind Pressure Humidity
    00:00 +13°C° 0 mm 1 mps 736 mmHg 91%
    01:00 +12°C° 0 mm 1 mps 737 mmHg 92%
    02:00 +12°C° 0 mm 1 mps 737 mmHg 92%
    03:00 +12°C° 0 mm 1 mps 737 mmHg 92%
    04:00 +12°C° 0 mm 1 mps 736 mmHg 92%
    05:00 +12°C° 0 mm 1 mps 736 mmHg 93%
    06:00 +13°C° 0 mm 1 mps 736 mmHg 88%
    07:00 +15°C° 0 mm 2 mps 736 mmHg 83%
    08:00 +17°C° 0 mm 2 mps 737 mmHg 79%
    09:00 +18°C° 0.1 mm 2 mps 736 mmHg 73%
    10:00 +19°C° 0.1 mm 2 mps 736 mmHg 68%
    11:00 +21°C° 0.1 mm 2 mps 736 mmHg 62%
    12:00 +21°C° 0.1 mm 3 mps 736 mmHg 60%
    13:00 +22°C° 0.1 mm 3 mps 736 mmHg 57%
    14:00 +22°C° 0.1 mm 3 mps 735 mmHg 55%
    15:00 +22°C° 0 mm 3 mps 735 mmHg 56%
    16:00 +22°C° 0 mm 3 mps 735 mmHg 58%
    17:00 +22°C° 0 mm 3 mps 735 mmHg 60%
    18:00 +20°C° 0 mm 3 mps 735 mmHg 68%
    19:00 +19°C° 0 mm 3 mps 735 mmHg 76%
    20:00 +17°C° 0 mm 4 mps 735 mmHg 84%
    21:00 +16°C° 0 mm 3 mps 735 mmHg 85%
    22:00 +16°C° 0 mm 3 mps 736 mmHg 85%
    23:00 +14°C° 0 mm 3 mps 736 mmHg 86%

    Tomorrow, 17 July, Wednesday

    Time Temperature Precipitation Wind Pressure Humidity
    00:00 +13°C° 0.1 mm 3 mps 736 mmHg 87%
    01:00 +12°C° 0.1 mm 3 mps 736 mmHg 88%
    02:00 +13°C° 0.1 mm 2 mps 736 mmHg 89%
    03:00 +12°C° 0 mm 2 mps 736 mmHg 91%
    04:00 +10°C° 0 mm 2 mps 736 mmHg 92%
    05:00 +10°C° 0 mm 2 mps 735 mmHg 94%
    06:00 +11°C° 0 mm 3 mps 735 mmHg 90%
    07:00 +13°C° 0 mm 4 mps 736 mmHg 87%
    08:00 +15°C° 0 mm 5 mps 736 mmHg 83%
    09:00 +16°C° 0.1 mm 5 mps 736 mmHg 80%
    10:00 +17°C° 0.1 mm 5 mps 735 mmHg 76%
    11:00 +19°C° 0.1 mm 5 mps 735 mmHg 72%
    12:00 +19°C° 0.2 mm 5 mps 735 mmHg 71%
    13:00 +19°C° 0.2 mm 5 mps 735 mmHg 70%
    14:00 +20°C° 0.2 mm 5 mps 735 mmHg 69%
    15:00 +20°C° 0.1 mm 6 mps 735 mmHg 67%
    16:00 +20°C° 0.1 mm 6 mps 735 mmHg 66%
    17:00 +20°C° 0.1 mm 7 mps 735 mmHg 64%
    18:00 +19°C° 0 mm 6 mps 735 mmHg 70%
    19:00 +16°C° 0 mm 5 mps 735 mmHg 75%
    20:00 +15°C° 0 mm 4 mps 735 mmHg 80%
    21:00 +14°C° 0 mm 3 mps 735 mmHg 84%
    22:00 +13°C° 0 mm 3 mps 735 mmHg 88%
    23:00 +12°C° 0 mm 3 mps 735 mmHg 92%

    Day after tomorrow, 18 July, Thursday

    Time Temperature Precipitation Wind Pressure Humidity
    00:00 +12°C° 0 mm 3 mps 735 mmHg 92%
    01:00 +11°C° 0 mm 3 mps 736 mmHg 93%
    02:00 +11°C° 0 mm 3 mps 736 mmHg 93%
    03:00 +11°C° 0 mm 3 mps 736 mmHg 93%
    04:00 +11°C° 0 mm 3 mps 736 mmHg 94%
    05:00 +10°C° 0 mm 3 mps 736 mmHg 94%
    06:00 +12°C° 0 mm 4 mps 736 mmHg 89%
    07:00 +14°C° 0 mm 4 mps 736 mmHg 84%
    08:00 +15°C° 0 mm 5 mps 736 mmHg 79%
    09:00 +17°C° 0 mm 5 mps 736 mmHg 75%
    10:00 +19°C° 0 mm 5 mps 737 mmHg 71%
    11:00 +20°C° 0 mm 5 mps 737 mmHg 67%
    12:00 +21°C° 0 mm 5 mps 737 mmHg 65%
    13:00 +21°C° 0 mm 5 mps 737 mmHg 64%
    14:00 +22°C° 0 mm 5 mps 736 mmHg 62%
    15:00 +22°C° 0.2 mm 5 mps 736 mmHg 63%
    16:00 +22°C° 0.2 mm 4 mps 736 mmHg 64%
    17:00 +22°C° 0.2 mm 4 mps 736 mmHg 65%
    18:00 +20°C° 0.1 mm 3 mps 737 mmHg 71%
    19:00 +19°C° 0.1 mm 2 mps 737 mmHg 77%
    20:00 +18°C° 0.1 mm 1 mps 737 mmHg 83%
    21:00 +16°C° 0 mm 1 mps 737 mmHg 84%
    22:00 +16°C° 0 mm 1 mps 737 mmHg 86%
    23:00 +15°C° 0 mm 1 mps 738 mmHg 87%

    19 July, Friday

    Time Temperature Precipitation Wind Pressure Humidity
    00:00 +14°C° 0 mm 1 mps 738 mmHg 88%
    01:00 +14°C° 0 mm 1 mps 738 mmHg 89%
    02:00 +13°C° 0 mm 1 mps 738 mmHg 90%
    03:00 +13°C° 0 mm 1 mps 738 mmHg 90%
    04:00 +13°C° 0 mm 1 mps 738 mmHg 90%
    05:00 +13°C° 0 mm 1 mps 738 mmHg 90%
    06:00 +15°C° 0 mm 1 mps 738 mmHg 85%
    07:00 +18°C° 0 mm 1 mps 738 mmHg 81%
    08:00 +20°C° 0 mm 1 mps 738 mmHg 76%
    09:00 +20°C° 0.2 mm 2 mps 738 mmHg 72%
    10:00 +23°C° 0.2 mm 2 mps 738 mmHg 68%
    11:00 +24°C° 0.2 mm 2 mps 738 mmHg 64%
    12:00 +24°C° 0.9 mm 2 mps 738 mmHg 63%
    13:00 +25°C° 0.9 mm 1 mps 738 mmHg 62%
    14:00 +25°C° 0.9 mm 1 mps 738 mmHg 61%
    15:00 +25°C° 0.6 mm 1 mps 738 mmHg 63%
    16:00 +25°C° 0.6 mm 1 mps 738 mmHg 65%
    17:00 +24°C° 0.6 mm 1 mps 738 mmHg 67%
    18:00 +23°C° 0.3 mm 1 mps 738 mmHg 71%
    19:00 +22°C° 0.3 mm 1 mps 738 mmHg 76%
    20:00 +20°C° 0.3 mm 1 mps 738 mmHg 80%
    21:00 +19°C° 0.1 mm 1 mps 738 mmHg 81%
    22:00 +18°C° 0.1 mm 1 mps 739 mmHg 83%
    23:00 +16°C° 0.1 mm 0 mps 739 mmHg 84%

    20 July, Saturday

    Time Temperature Precipitation Wind Pressure Humidity
    00:00 +15°C° 0 mm 0 mps 739 mmHg 85%
    01:00 +15°C° 0 mm 0 mps 739 mmHg 86%
    02:00 +15°C° 0 mm 1 mps 739 mmHg 87%
    03:00 +15°C° 0 mm 1 mps 739 mmHg 88%
    04:00 +14°C° 0 mm 0 mps 740 mmHg 88%
    05:00 +14°C° 0 mm 0 mps 740 mmHg 89%
    06:00 +18°C° 0 mm 1 mps 740 mmHg 85%
    07:00 +19°C° 0 mm 1 mps 740 mmHg 82%
    08:00 +21°C° 0 mm 1 mps 741 mmHg 78%
    09:00 +21°C° 0 mm 2 mps 741 mmHg 74%
    10:00 +24°C° 0 mm 2 mps 741 mmHg 69%
    11:00 +25°C° 0 mm 2 mps 741 mmHg 65%
    12:00 +25°C° 0.6 mm 2 mps 741 mmHg 64%
    13:00 +26°C° 0.6 mm 2 mps 741 mmHg 63%
    14:00 +26°C° 0.6 mm 2 mps 741 mmHg 63%
    15:00 +27°C° 0.2 mm 2 mps 741 mmHg 63%
    16:00 +27°C° 0.2 mm 2 mps 741 mmHg 64%
    17:00 +27°C° 0.2 mm 2 mps 741 mmHg 64%
    18:00 +25°C° 0.7 mm 2 mps 741 mmHg 71%
    19:00 +23°C° 0.7 mm 2 mps 741 mmHg 77%
    20:00 +22°C° 0.7 mm 1 mps 741 mmHg 84%
    21:00 +21°C° 0 mm 1 mps 742 mmHg 85%
    22:00 +20°C° 0 mm 1 mps 742 mmHg 86%
    23:00 +17°C° 0 mm 0 mps 742 mmHg 87%

    21 July, Sunday

    Time Temperature Precipitation Wind Pressure Humidity
    00:00 +17°C° 0 mm 0 mps 742 mmHg 88%
    01:00 +16°C° 0 mm 0 mps 742 mmHg 89%
    02:00 +18°C° 0 mm 1 mps 742 mmHg 90%
    03:00 +16°C° 0 mm 0 mps 742 mmHg 90%
    04:00 +15°C° 0 mm 0 mps 742 mmHg 90%
    05:00 +15°C° 0 mm 0 mps 742 mmHg 91%
    06:00 +17°C° 0 mm 0 mps 742 mmHg 87%
    07:00 +19°C° 0 mm 0 mps 743 mmHg 83%
    08:00 +22°C° 0 mm 1 mps 743 mmHg 80%
    09:00 +22°C° 0 mm 0 mps 743 mmHg 75%
    10:00 +23°C° 0 mm 0 mps 743 mmHg 69%
    11:00 +25°C° 0 mm 0 mps 743 mmHg 64%
    12:00 +25°C° 0 mm 0 mps 743 mmHg 61%
    13:00 +28°C° 0 mm 1 mps 743 mmHg 58%
    14:00 +28°C° 0 mm 1 mps 743 mmHg 55%
    15:00 +28°C° 0 mm 1 mps 743 mmHg 58%
    16:00 +28°C° 0 mm 1 mps 743 mmHg 61%
    17:00 +28°C° 0 mm 1 mps 743 mmHg 65%
    18:00 +26°C° 0.2 mm 1 mps 743 mmHg 70%
    19:00 +25°C° 0.2 mm 1 mps 743 mmHg 76%
    20:00 +23°C° 0.2 mm 1 mps 743 mmHg 81%
    21:00 +22°C° 0.2 mm 1 mps 743 mmHg 83%
    22:00 +21°C° 0.2 mm 1 mps 743 mmHg 85%
    23:00 +20°C° 0.2 mm 1 mps 744 mmHg 87%
    Show more